Find Starlink 34257

NORAD ID: 65225 Int'l Des: 2025-176 Owner: SPXS Country: US Constellation: starlink operational
LEOCIRCULAR

Live Position

Loading 3D Globe...

About Starlink 34257

Description loading...

Upcoming Passes

Passes for default location (London). Set your location on the main map for personalized predictions.

Altitude History

Loading altitude history...

Two-Line Element Set

1 65225U 25176AD 26103.96404570 .00009193 00000-0 32193-3 0 9991
2 65225 53.1591 348.6951 0001148 81.6741 278.4390 15.30220678 38461
Epoch: Apr 13, 2026 • Age: 16 hours

Current Status

Altitude 478.9 km
Velocity 7.63 km/s
Sub-Earth Point -13.65°S, 88.61°W
Launch Date Aug 14, 2025
Age 0.6 years
Type internet

Technical Details

Classification Payload
Mass 575.00 kg
Dry Mass 530.00 kg
Total Mass 575.00 kg
Length 0.30 m
Diameter 4.10 m
Span 29.00 m
Shape Box + pan
Manufacturer SPXS
Bus Type Starlink V2MO
Phase Status In Orbit
Owner/State SPXS/US

Most Searched